Location: Devargunta
(16.7631°N, 80.9077°E)
Time: 11:04:42
(UTC+00:00)

NOSS 0 Rocket - Pass Details

Date: 19 January 2021
Orbit: 938 x 952 km, 70.0° (Epoch: 01 March)

Event Time Altitude Azimuth Distance (km) Brightness Sun altitude
Rises 23:09:22 0° 191° (SSW) 3,607 7.0 -28.2°
Reaches altitude 10° 23:11:54 10° 189° (S) 2,661 6.3 -27.6°
Maximum altitude 23:18:02 70° 107° (ESE) 999 4.1 -26.1°
Drops below altitude 10° 23:24:10 10° 24° (NNE) 2,656 6.4 -24.7°
Sets 23:26:42 0° 22° (NNE) 3,599 7.1 -24.1°
